Date,SPY realized variance,BAC realized variance,SPY-BAC realized covariance
01/02/2001,0.951295801,6.318749725,0.907560023
02/02/2001,0.963631811,1.530310629,0.131024948
05/02/2001,0.587615555,1.704638509,0.129532352
06/02/2001,0.520640954,2.13580264,0.183607669
07/02/2001,0.991927597,1.682753307,0.324999944
08/02/2001,0.863925899,1.628729852,0.102364671
09/02/2001,0.811389271,1.733906331,0.470012118
12/02/2001,0.838065608,1.062491989,0.4049605
13/02/2001,0.812077167,3.063266492,0.106141198
14/02/2001,0.935739386,2.084256519,0.411245084
15/02/2001,0.471211023,2.988316268,0.072122114
16/02/2001,0.770840882,3.963384669,0.255595413
20/02/2001,1.106840832,2.884806821,0.471042419
21/02/2001,1.906914042,3.625510803,1.496373076
22/02/2001,4.223017985,8.78400213,3.482311863
23/02/2001,3.769336726,8.260530019,3.880816067
26/02/2001,1.434862025,5.896065579,1.374752947
27/02/2001,2.013483382,8.618224196,1.789442436
28/02/2001,2.76108413,7.619711904,2.928561115
01/03/2001,3.533220744,7.20502389,2.826408635
02/03/2001,2.438675713,8.259365347,2.199898401
05/03/2001,1.062245417,4.690580955,0.998839374
06/03/2001,0.749230193,3.637683619,0.765416035
07/03/2001,1.384292486,3.308524126,0.974390423
08/03/2001,0.986965094,1.950074915,0.209372313
09/03/2001,1.838447159,2.165090198,0.615979612
12/03/2001,2.791516036,3.352585142,1.835613587
13/03/2001,2.397235019,4.969054255,2.041780285
14/03/2001,6.082976087,16.41752685,5.439109726
15/03/2001,1.538930552,3.273121106,1.227406282
16/03/2001,2.322978711,5.436570006,2.316664186
19/03/2001,1.519270653,4.907224469,1.743310349
20/03/2001,3.82828656,6.028710706,3.04716907
21/03/2001,4.006788016,10.45101431,3.941286352
22/03/2001,6.371360606,14.74301267,6.998062042
23/03/2001,3.794426663,9.366624847,3.215508428
26/03/2001,1.106006003,5.80973118,1.103835567
27/03/2001,1.373331695,9.764895888,1.416873115
28/03/2001,2.330897602,5.172546047,1.858549598
29/03/2001,2.591589271,4.745683208,2.635280535
30/03/2001,2.233898701,3.959123052,2.223451777
02/04/2001,2.168117,4.901264192,1.906502808
03/04/2001,2.877098368,5.276775218,2.235775852
04/04/2001,3.96491224,7.589933046,2.858676073
05/04/2001,1.638323231,6.079541698,1.980432516
06/04/2001,3.553344234,18.42299718,3.893454018
09/04/2001,1.476699713,3.608747749,1.379829308
10/04/2001,1.275017605,4.056495871,1.434126807
11/04/2001,1.969212327,4.028479931,1.545869483
12/04/2001,1.49714461,3.452626857,1.295655045
16/04/2001,1.222120683,5.195814514,0.444654197
17/04/2001,2.009592435,1.303530483,0.57763134
18/04/2001,9.91510392,12.69702407,1.408666319
19/04/2001,1.102032292,3.725616145,0.765091608
20/04/2001,1.028193628,2.678032035,0.8276453
23/04/2001,0.935117841,1.409948193,0.307699955
24/04/2001,1.132066627,1.2044476,0.547071887
25/04/2001,1.344566797,2.974229674,1.317879258
26/04/2001,0.950714992,2.412216873,0.785865817
27/04/2001,1.151148762,1.853394213,0.774207267
30/04/2001,0.986285782,2.727062757,0.830347437
01/05/2001,1.087381007,2.700845239,0.681232076
02/05/2001,1.481687331,2.521604189,1.025767786
03/05/2001,1.112376203,1.784803171,0.681056536
04/05/2001,1.988326575,1.485754474,1.070151932
07/05/2001,0.83497414,0.935459947,0.464122211
08/05/2001,0.866935644,0.618955341,0.366442301
09/05/2001,0.799184675,0.66106785,0.406014672
10/05/2001,0.728871731,0.691117188,0.278145706
11/05/2001,0.924618419,1.875919128,0.632673647
14/05/2001,0.559089803,0.9279311,0.404394442
15/05/2001,0.906840343,1.569482677,0.513154858
16/05/2001,1.082428115,1.536502878,0.652246385
17/05/2001,0.888729954,1.224896816,0.338087082
18/05/2001,0.560218701,1.390799466,0.335277964
21/05/2001,0.727021494,1.28470393,0.329836076
22/05/2001,0.754952049,2.422649822,0.388616407
23/05/2001,0.743298798,2.547374619,0.405806631
24/05/2001,0.896893072,2.404243647,0.817810181
25/05/2001,0.620804963,1.270444175,0.187949884
29/05/2001,0.715835731,0.642291744,0.241655759
30/05/2001,0.967751433,2.05277309,0.637840334
31/05/2001,0.861543002,1.372487639,0.397662319
01/06/2001,0.947136516,1.625094076,0.501297456
04/06/2001,0.727288511,0.882156618,0.339413579
05/06/2001,0.659242703,1.105135886,0.339875543
06/06/2001,0.705668114,2.00471994,0.663226833
07/06/2001,0.745401452,2.068008717,0.684433544
08/06/2001,0.624132718,0.75091118,0.056222189
11/06/2001,0.315165869,0.804895323,0.300730874
12/06/2001,0.784070237,1.0923095,0.442053661
13/06/2001,0.534204811,0.727605677,0.221762993
14/06/2001,0.730928826,1.559527593,0.554475326
15/06/2001,1.297260418,1.677655713,0.564985855
18/06/2001,0.952443255,2.320447384,0.705916925
19/06/2001,0.673542498,2.083104063,0.68055387
20/06/2001,0.810360468,1.769843404,0.372456362
21/06/2001,1.194440369,1.452560105,0.086848397
22/06/2001,0.893324063,2.703229564,0.348087493
25/06/2001,0.765191886,1.694189647,0.35581003
26/06/2001,0.750191098,1.930684523,0.501084346
27/06/2001,1.078007077,2.141584145,1.112705224
28/06/2001,1.326331963,2.036010033,0.668744847
29/06/2001,0.885374603,1.470801128,0.410169182
02/07/2001,0.672077539,1.447857408,0.446986848
03/07/2001,0.345939769,0.644053742,0.18971706
05/07/2001,0.452248091,1.069289861,0.282895676
06/07/2001,0.908244496,2.452345333,0.774706875
09/07/2001,0.606241695,1.303576623,0.610477157
10/07/2001,1.004045161,1.576345179,0.719257932
11/07/2001,1.454774732,3.709787865,1.37590993
12/07/2001,0.561089481,2.983813114,0.534455506
13/07/2001,0.666680257,1.510658004,0.36130218
16/07/2001,0.692516525,1.111592362,0.348344873
17/07/2001,0.810628378,1.844555966,0.418311667
18/07/2001,0.94126479,2.031702735,0.466692942
19/07/2001,1.013615283,2.017496462,0.655765585
20/07/2001,0.75049546,1.176589267,0.264667771
23/07/2001,0.9554832,1.197975285,0.560404441
24/07/2001,1.012535657,1.597297299,0.643593107
25/07/2001,0.968766765,1.3789633,0.390571443
26/07/2001,0.735455213,1.680768759,0.563662381
27/07/2001,0.842798339,0.62599944,0.339952459
30/07/2001,0.599979058,1.002836823,0.245575719
31/07/2001,0.663071473,0.568793738,0.168917759
01/08/2001,0.533811714,1.02473856,0.399372951
02/08/2001,0.32238635,0.752433294,0.1006795
03/08/2001,0.685838306,0.631961404,0.356509704
06/08/2001,0.46290982,0.817153248,0.263485128
07/08/2001,0.414172896,0.767543444,0.21889825
08/08/2001,0.813762442,1.354555588,0.5818587
09/08/2001,1.061024449,0.902906845,0.469401106
10/08/2001,1.370550353,0.793305249,0.473329843
13/08/2001,0.596993183,0.572455059,0.337414633
14/08/2001,0.693756957,0.730157245,0.356789837
15/08/2001,0.624841013,0.891557597,0.296776135
16/08/2001,1.001454679,1.214191867,0.580801498
17/08/2001,0.870204719,1.063527943,0.547461735
20/08/2001,0.562108005,0.657486843,0.234783004
21/08/2001,0.869459986,1.700122991,0.726964111
22/08/2001,0.931098222,2.155673372,0.797418738
23/08/2001,0.641626983,0.886536799,0.40421853
24/08/2001,0.814994099,1.839168671,0.371459648
27/08/2001,0.479434324,1.310762802,0.399499322
28/08/2001,0.835940472,1.463669028,0.66886203
29/08/2001,0.847491534,2.028471827,0.759569559
30/08/2001,1.618877084,2.595348225,1.237273217
31/08/2001,1.350958369,2.564620089,1.42421791
04/09/2001,1.422067475,2.462855073,0.921164303
05/09/2001,2.229846476,2.516766563,1.843267366
06/09/2001,2.496394035,3.89929904,2.015605007
07/09/2001,2.489877708,4.06443216,1.997379729
10/09/2001,2.63416984,4.084855633,2.03706569
17/09/2001,3.767722309,6.450458705,2.867622452
18/09/2001,0.899369455,3.294476137,0.680023463
19/09/2001,5.658382626,9.072482095,4.495539471
20/09/2001,3.284640941,6.430944504,2.878571898
21/09/2001,8.401177929,19.34612736,9.223743752
24/09/2001,1.66027421,3.773772216,1.056660453
25/09/2001,2.086014233,5.146732556,2.066832695
26/09/2001,1.214992997,2.883534358,0.749441891
27/09/2001,1.839190246,4.13177702,1.365224221
28/09/2001,1.550444426,2.540946036,0.727547783
01/10/2001,0.936632183,2.418978478,0.886263069
02/10/2001,1.371215785,4.006960896,1.159685752
03/10/2001,1.731118634,3.815073218,1.318297829
04/10/2001,1.971847733,3.83402648,1.185134577
05/10/2001,1.857289674,6.334183258,1.444022369
08/10/2001,1.733472721,3.498015705,1.200940393
09/10/2001,1.122691093,7.546389049,1.170463338
10/10/2001,1.206783756,4.765669788,1.213155807
11/10/2001,1.154226273,6.245947765,0.741064265
12/10/2001,3.804677965,3.866756421,1.168866649
15/10/2001,0.93922454,5.319246802,0.572149333
16/10/2001,0.906417946,3.839720993,0.916497264
17/10/2001,1.889177953,5.322650423,1.625515344
18/10/2001,1.21914415,3.209067557,1.069201357
19/10/2001,0.797650667,3.098062007,0.784259094
22/10/2001,0.942176661,2.397167191,0.794960278
23/10/2001,1.120801935,2.570478828,0.917213926
24/10/2001,1.311858128,1.565788691,0.71197828
25/10/2001,1.946625995,2.39575207,1.338286009
26/10/2001,1.213046796,1.667553599,0.50587479
29/10/2001,1.138334836,2.389133584,0.822348945
30/10/2001,1.389553542,3.855425643,1.237523097
31/10/2001,1.543630076,2.895395998,1.258759797
01/11/2001,2.000198316,4.963108016,2.035133282
02/11/2001,1.066729821,2.050527722,0.560614909
05/11/2001,0.745457949,2.316376174,0.664921903
06/11/2001,1.548293526,1.819362181,1.23092292
07/11/2001,0.961856867,1.788533942,0.735729844
08/11/2001,0.814768165,2.789307949,0.842329034
09/11/2001,1.459496486,1.894757896,1.138280013
12/11/2001,1.946502924,2.897059789,1.560176544
13/11/2001,0.639906156,1.224923461,0.270096724
14/11/2001,0.708297604,1.339397078,0.585403535
15/11/2001,0.829011287,1.093357307,0.516666167
16/11/2001,0.735286658,0.716213738,0.260292174
19/11/2001,0.461778534,1.047392287,0.398680513
20/11/2001,0.607443882,1.417864592,0.456683178
21/11/2001,0.580261297,1.178860457,0.398055372
23/11/2001,0.180547995,0.332351001,0.082026906
26/11/2001,0.505655837,0.71886048,0.300191578
27/11/2001,1.64967515,1.846858097,1.176400082
28/11/2001,1.262142243,2.70206923,0.873230819
29/11/2001,1.061559782,1.311629126,0.715215684
30/11/2001,0.508166034,0.742234345,0.225967367
03/12/2001,0.888966484,1.480329785,0.650429316
04/12/2001,0.379800424,2.017985139,0.469775037
05/12/2001,0.71342965,1.15591148,0.437791457
06/12/2001,0.625045,1.612272353,0.607500759
07/12/2001,0.611935775,1.290916453,0.403376241
10/12/2001,0.523255506,1.473899238,0.440470364
11/12/2001,0.602538475,2.728957372,0.408738154
12/12/2001,0.861255035,1.890190005,0.859470695
13/12/2001,0.786375391,1.614433004,0.436085077
14/12/2001,0.825001323,1.225020239,0.427412346
17/12/2001,0.550006997,2.287769583,0.501726397
18/12/2001,0.413756875,1.77876579,0.250595362
19/12/2001,0.685138611,1.411253551,0.470745855
20/12/2001,0.547043376,1.092161537,0.364034714
21/12/2001,0.205954292,2.009242689,0.166893607
24/12/2001,0.066035184,0.776571729,0.000513242
26/12/2001,0.345685268,0.999074912,0.313167619
27/12/2001,0.233423118,0.939587633,0.160804181
28/12/2001,0.342481569,1.140566711,0.255452523
31/12/2001,0.238125262,0.954823811,0.247560349
02/01/2002,0.99530303,1.30842684,0.778943903
03/01/2002,0.436323712,1.926236836,0.415083055
04/01/2002,0.876478159,1.575484667,0.661075756
07/01/2002,0.426388602,1.191212712,0.199788237
08/01/2002,0.526928616,1.265812447,0.380871606
09/01/2002,0.997425175,1.452015093,0.682794509
10/01/2002,0.545247125,1.259633929,0.26190107
11/01/2002,0.637071507,1.068848968,0.295457775
14/01/2002,0.407510524,0.605017155,0.204112709
15/01/2002,0.562600272,1.343854602,0.417424647
16/01/2002,0.585651938,2.276729117,0.638137587
17/01/2002,0.396501051,0.789914946,0.176398255
18/01/2002,0.556292481,1.506470348,0.607529869
22/01/2002,0.462622543,1.982921553,0.260666672
23/01/2002,0.546585641,1.187808725,0.253750205
24/01/2002,0.533950946,1.57169641,0.327059795
25/01/2002,0.450978684,1.010915826,0.326201231
28/01/2002,0.359695994,1.483444859,0.271846449
29/01/2002,1.093945457,5.137384463,1.253613496
30/01/2002,2.70242512,6.765256126,2.998997715
31/01/2002,0.820916744,2.015908158,0.732107461
01/02/2002,0.489637291,2.219254369,0.576891482
04/02/2002,0.899520223,3.164503331,0.821274155
05/02/2002,1.893404819,5.227658608,2.306407706
06/02/2002,1.829280838,3.823823976,1.709756928
07/02/2002,1.254988892,3.700891325,1.296361061
08/02/2002,0.83511902,2.817308124,0.846275812
11/02/2002,0.343050487,1.368217071,0.284286532
12/02/2002,0.454682514,1.072143339,0.327634391
13/02/2002,0.681372745,3.169003603,1.011465884
14/02/2002,0.587871989,2.014357082,0.672698021
15/02/2002,0.899823977,1.71018218,0.75717713
19/02/2002,0.856436869,2.429909355,0.779608263
20/02/2002,1.000686401,2.559170005,0.847573654
21/02/2002,1.048567887,2.153027005,1.021484868
22/02/2002,1.366240912,2.537497782,1.160460791
25/02/2002,0.50121393,2.186488684,0.500855405
26/02/2002,1.138550331,2.252480312,1.091865083
27/02/2002,1.018298823,2.843639116,0.693064894
28/02/2002,0.845539751,1.8012834,0.902374513
01/03/2002,0.827680473,1.878405677,0.667666053
04/03/2002,0.71908612,2.376089443,0.442104413
05/03/2002,0.956086789,2.43884783,0.888779342
06/03/2002,0.783783546,1.852010603,0.459417025
07/03/2002,1.033413708,1.994929686,0.648407088
08/03/2002,0.66352366,1.334402576,0.528862334
11/03/2002,0.366621823,1.425995382,0.301405103
12/03/2002,0.528698935,2.339509518,0.770009712
13/03/2002,0.456249559,1.583948354,0.574143988
14/03/2002,0.335652352,0.816057343,0.301579398
15/03/2002,0.422344074,0.840806805,0.1706611
18/03/2002,0.518310628,0.880673815,0.310423305
19/03/2002,0.474502837,1.426191192,0.499648993
20/03/2002,0.380319829,0.613551806,0.220585265
21/03/2002,0.64357052,1.262501825,0.4629388
22/03/2002,0.587361181,1.237545947,0.333475211
25/03/2002,0.512695271,0.886176285,0.422576587
26/03/2002,0.960681479,1.62178082,0.869906553
27/03/2002,0.537072955,1.139015626,0.410089008
28/03/2002,0.407291789,1.662005509,0.362130178
01/04/2002,0.388143973,1.235603902,0.400865532
02/04/2002,0.481539657,1.493555842,0.446518911
03/04/2002,0.46472976,0.778442381,0.310284953
04/04/2002,0.593359231,1.098115708,0.459059927
05/04/2002,0.486282674,1.066882516,0.424348433
08/04/2002,0.487269989,1.557692205,0.569263546
09/04/2002,0.453286836,0.535386168,0.307628288
10/04/2002,0.50856431,0.848766485,0.366186912
11/04/2002,0.900747494,1.475863565,0.677137693
12/04/2002,0.529891115,0.771725905,0.282742929
15/04/2002,0.57943161,2.006839936,0.462461141
16/04/2002,0.286840432,0.875866484,0.231157427
17/04/2002,0.359087564,0.89638842,0.310966713
18/04/2002,1.881343712,1.474826721,0.760855805
19/04/2002,0.296171334,0.814338913,0.167101419
22/04/2002,0.390578652,0.946469914,0.193834607
23/04/2002,0.636497334,0.931402025,0.392602529
24/04/2002,0.81910534,1.648913517,0.885833697
25/04/2002,0.768163924,1.179736165,0.380858852
26/04/2002,1.012955289,1.206731686,0.694078957
29/04/2002,0.71403612,1.477557746,0.698483565
30/04/2002,0.742849082,1.02952243,0.43723871
01/05/2002,0.97847271,1.811876531,0.644079623
02/05/2002,0.798066674,1.306785074,0.661996529
03/05/2002,0.625699505,0.588608385,0.296297833
06/05/2002,0.5842213,1.149193386,0.454137123
07/05/2002,0.708960141,1.058916087,0.370131326
08/05/2002,0.616646156,0.992478414,0.32011961
09/05/2002,1.017522953,0.923606379,0.495293409
10/05/2002,0.896381418,0.960131245,0.617030219
13/05/2002,0.734655948,0.332378977,0.273995948
14/05/2002,0.498250596,0.762943221,0.416917914
15/05/2002,1.141420545,0.556232208,0.427752144
16/05/2002,0.466010821,0.486707334,0.198055918
17/05/2002,0.53866488,0.36765619,0.166329418
20/05/2002,0.460276711,0.527286862,0.199877684
21/05/2002,0.58534996,0.465519951,0.293087476
22/05/2002,0.850376502,1.942914678,0.875792194
23/05/2002,0.678768606,0.892893648,0.450952109
24/05/2002,0.533886645,0.486580333,0.290918005
28/05/2002,0.650465486,0.952419403,0.47604661
29/05/2002,0.296491266,0.437840353,0.185597165
30/05/2002,0.83599031,1.093900386,0.501266787
31/05/2002,0.557186866,0.857063899,0.41465267
03/06/2002,1.26650727,1.027440577,0.634224512
04/06/2002,1.658411928,1.076585153,0.989779298
05/06/2002,0.808491304,1.007714412,0.368650362
06/06/2002,1.038933672,2.463914106,0.563885247
07/06/2002,1.421158575,2.747990154,1.132832853
10/06/2002,1.18775431,0.790856975,0.662426763
11/06/2002,1.056623347,0.873033797,0.527726098
12/06/2002,2.599686692,2.031865271,1.478471186
13/06/2002,1.08690117,2.218935327,1.026919088
14/06/2002,3.989754588,3.265011805,1.799561413
17/06/2002,0.813700952,0.887592721,0.439794758
18/06/2002,0.844533811,1.502866228,0.821519294
19/06/2002,1.057383309,1.411930813,0.715575132
20/06/2002,1.505967492,1.718692756,0.966345345
21/06/2002,1.417769474,1.624631183,1.002202272
24/06/2002,2.693415103,2.902956285,1.944774676
25/06/2002,1.8278804,2.460291592,1.484937041
26/06/2002,4.190084949,4.114230438,2.854247975
27/06/2002,2.451210516,1.719242892,1.222315504
28/06/2002,1.168504804,1.606596393,0.845045597
01/07/2002,1.389052882,1.690033344,0.934104941
02/07/2002,2.773034279,5.279801448,2.773923572
03/07/2002,2.555952657,2.93226545,1.913196356
05/07/2002,0.717127861,0.85826002,0.30931745
08/07/2002,1.48937686,2.685831303,1.38675372
09/07/2002,1.896407038,1.932887097,1.323682281
10/07/2002,3.265146004,3.239714153,2.191459605
11/07/2002,5.552411001,9.033033198,5.81658257
12/07/2002,3.982519103,6.270928952,3.819617141
15/07/2002,5.215776704,6.213683407,2.773663357
16/07/2002,5.16443714,6.131882889,3.854530498
17/07/2002,4.579370792,6.441999942,2.830368558
18/07/2002,2.59084454,5.8923604,2.044238326
19/07/2002,3.072242068,6.383511421,2.674756666
22/07/2002,11.03054022,16.30646123,10.63557603
23/07/2002,10.11592346,16.12752356,9.236206028
24/07/2002,11.67986445,18.19872151,8.516904909
25/07/2002,12.12349111,13.68145061,8.986321002
26/07/2002,4.175067605,6.338326361,3.735679802
29/07/2002,2.273012002,2.253358897,0.908550781
30/07/2002,3.786362077,5.823440606,3.625878028
31/07/2002,2.773075708,3.593583884,2.089055201
01/08/2002,3.298572109,3.551214114,2.092844996
02/08/2002,3.604407694,6.099390861,3.204327328
05/08/2002,2.45598094,5.201469807,2.423597961
06/08/2002,3.950307991,5.63154868,3.275320452
07/08/2002,2.921867271,3.453022052,2.155240835
08/08/2002,2.504707927,3.856888464,1.669119566
09/08/2002,2.806339237,3.028071846,2.317623276
12/08/2002,1.59636379,3.055180079,1.482389607
13/08/2002,2.60511319,2.919640598,2.177931108
14/08/2002,3.598899364,4.094307868,2.396684196
15/08/2002,4.188978893,3.691076504,2.590971077
16/08/2002,1.637507972,1.588852171,1.055366742
19/08/2002,1.388299111,1.705140473,0.938395617
20/08/2002,1.603822097,2.098214907,1.31972408
21/08/2002,3.031788598,3.182448005,2.351712567
22/08/2002,1.791614173,1.342023664,1.076966818
23/08/2002,1.442687353,1.707922403,0.789574501
26/08/2002,1.714737006,2.838708915,1.291067358
27/08/2002,2.577609797,1.379208474,1.13651137
28/08/2002,1.563959286,2.327748408,1.315539026
29/08/2002,1.852715969,3.096726838,1.509093961
30/08/2002,1.480557366,1.176848726,0.915266572
03/09/2002,1.720906452,3.293148756,1.548084651
04/09/2002,1.842850451,2.140019456,1.279365421
05/09/2002,2.314990043,2.552341456,1.621386585
06/09/2002,1.546864889,2.58743876,1.313148102
09/09/2002,1.486409103,1.872562089,0.959573836
10/09/2002,1.500963153,3.034377615,1.405209241
11/09/2002,1.210571881,2.719693927,1.211155661
12/09/2002,1.020492996,1.285085015,0.663876656
13/09/2002,2.065021904,1.941359106,1.131816626
16/09/2002,1.280808501,1.740320103,0.866996297
17/09/2002,1.582245792,2.691460861,1.20739647
18/09/2002,2.195331484,2.713748873,1.82452919
19/09/2002,1.72117491,2.876886403,1.303396653
20/09/2002,1.758405364,3.625673156,1.777778852
23/09/2002,2.442056707,4.740420817,2.392113406
24/09/2002,4.396484332,7.109805173,3.716490011
25/09/2002,2.415131482,3.760436663,1.75963707
26/09/2002,1.999355847,3.484170797,1.925080805
27/09/2002,2.084670408,4.929304156,2.011005272
30/09/2002,4.359400832,7.045583667,4.305477548
01/10/2002,3.752432965,5.051916378,3.125939576
02/10/2002,3.771298534,4.607893562,2.906960724
03/10/2002,4.635320995,9.116202351,4.299503585
04/10/2002,5.694334439,11.6026331,6.047464162
07/10/2002,3.586333961,11.32678757,4.560514756
08/10/2002,5.855900729,7.963775612,5.208614135
09/10/2002,5.565317813,9.018675196,4.744999705
10/10/2002,5.695154458,10.59826747,5.403057268
11/10/2002,3.510181873,5.416191526,2.928581623
14/10/2002,2.772897352,5.876966355,2.808539891
15/10/2002,1.804428734,3.575851683,1.589405344
16/10/2002,2.090609514,3.20467235,1.113071954
17/10/2002,1.474479723,2.067959003,0.926090362
18/10/2002,2.06380731,1.874269436,1.103914612
21/10/2002,1.902690244,2.508286357,1.372953232
22/10/2002,1.833503658,2.57099016,1.582041638
23/10/2002,2.288851853,2.276505005,1.71832283
24/10/2002,2.505994026,3.622597618,2.35745071
25/10/2002,2.384290833,2.381494706,1.328690854
28/10/2002,1.981263866,2.363115695,1.465216447
29/10/2002,3.606462239,2.941539549,2.316702131
30/10/2002,2.116335018,1.804264813,1.28660217
31/10/2002,2.134808964,2.471221467,1.538195645
01/11/2002,2.264854676,4.111621133,2.35331776
04/11/2002,1.085563186,1.341079273,0.854787926
05/11/2002,0.950818266,1.56742109,0.850087824
06/11/2002,4.249490704,6.058002919,3.834241274
07/11/2002,1.521146071,2.455554474,1.371322906
08/11/2002,1.692699236,2.400947697,1.345918187
11/11/2002,1.177363567,1.884726062,1.088023295
12/11/2002,1.114590621,1.983755327,0.994174582
13/11/2002,3.603458513,4.269762174,2.268077283
14/11/2002,0.939168885,1.429482741,0.601939081
15/11/2002,1.48012145,1.964740479,1.079784422
18/11/2002,0.869732937,1.463828803,0.653724841
19/11/2002,1.094565413,2.553355463,0.939447525
20/11/2002,1.400538906,1.507737347,0.91118791
21/11/2002,1.059507027,1.864032789,0.863230602
22/11/2002,0.921049739,1.680067732,0.645485669
25/11/2002,0.955653701,1.900828931,0.962625936
26/11/2002,0.957500691,1.896654389,0.862088988
27/11/2002,0.95850848,1.783499376,0.955197626
29/11/2002,0.587047515,0.776032,0.448206379
02/12/2002,1.956427407,2.841264318,1.478829354
03/12/2002,1.073373432,2.696630004,1.127869208
04/12/2002,1.733396281,3.04443356,1.658664284
05/12/2002,0.897532213,1.42342127,0.763738077
06/12/2002,1.650573051,2.379607469,1.136148506
09/12/2002,0.993256483,2.115520766,0.94232507
10/12/2002,0.769233755,1.468822697,0.629775408
11/12/2002,0.862607295,1.645719633,0.78113648
12/12/2002,1.25564366,1.811168353,1.147067464
13/12/2002,1.086808102,1.94144625,1.124324626
16/12/2002,0.591162253,1.417462849,0.672970998
17/12/2002,0.674797429,0.915318406,0.52773078
18/12/2002,0.862806188,1.210521083,0.666963165
19/12/2002,1.288401114,1.31573543,0.96866201
20/12/2002,0.552887129,0.919399759,0.416088214
23/12/2002,0.666771025,1.654041331,0.698941307
24/12/2002,0.162822379,0.453556385,0.137118073
26/12/2002,0.944323817,1.281127294,0.846797337
27/12/2002,0.836917568,1.545060176,0.832884182
30/12/2002,0.861170112,1.269675281,0.740514779
31/12/2002,1.242569133,2.064004206,1.277671871
02/01/2003,1.600294642,1.603163153,1.171318609
03/01/2003,0.88110339,1.050497997,0.656113105
06/01/2003,0.592650884,0.978055653,0.522853499
07/01/2003,1.147787506,1.064941187,0.7750289
08/01/2003,0.948259102,1.0182856,0.594229305
09/01/2003,0.613763548,0.917586117,0.514911028
10/01/2003,1.092651876,1.679684507,1.030617744
13/01/2003,0.714286891,1.019920356,0.560841528
14/01/2003,0.545810055,0.531779199,0.325888589
15/01/2003,0.567807138,1.158666801,0.504157225
16/01/2003,0.857386495,2.230378039,0.90954338
17/01/2003,0.799423621,1.375623279,0.719226567
21/01/2003,0.614218603,0.946438157,0.483565496
22/01/2003,1.132824064,2.108202967,0.955716079
23/01/2003,1.069058698,1.249120596,0.857842206
24/01/2003,1.491407766,1.292448011,1.013396125
27/01/2003,2.44797139,1.825903225,1.703341202
28/01/2003,1.033695726,1.334938356,0.82987101
29/01/2003,1.434536956,1.920844213,1.428392644
30/01/2003,1.30009758,2.020997322,1.217017769
31/01/2003,1.538256699,1.70262207,1.218350907
03/02/2003,1.042761651,1.202636697,0.853456549